Tracking 25693 objects as of 1-Jul-2022
HD Live streaming from Space Station
objects crossing your sky now

FENGYUN 1C DEB

Track FENGYUN 1C DEB now!
10-day predictions


NORAD ID: 30816
Int'l Code: 1999-025AVA
Perigee: 832.1 km
Apogee: 919.7 km
Inclination: 99.0 °
Period: 102.3 minutes
Semi major axis: 7246 km
RCS: 0.037 m2 (small)
Launch date: May 10, 1999
Source: People's Republic of China (PRC)
Launch site: Taiyaun Space Center, China (TSC)

Note: This is SATELLITE DEBRIS
aabbcc
Your satellite tracking list
Your tracking list is empty




NASA's NSSDC Master Catalog

Two Line Element Set (TLE):
1 30816U 99025AVA 22181.62988567  .00000798  00000-0  49414-3 0  9997
2 30816  99.0046 237.5824 0060471  15.4792 138.3128 14.07257984785985
Source of the keplerian elements: AFSPC